This is the latest recevied weather packets stored in our database for station/object K2CCS. If no packets are shown the sender has not sent any weather packets the latest 10 day(s).
| Time | Temp. | Humidity | Pressure | Rain* | Wind** | Luminosity | Snow |
|---|---|---|---|---|---|---|---|
| 1777637183 | 7.78° C | 75% | 1016.2 hPa | 0 mm | - | 170 W/m² | - |
| 1777636880 | 7.22° C | 75% | 1015.9 hPa | 0 mm | - | 97 W/m² | - |
| 1777636576 | 7.22° C | 76% | 1016.2 hPa | 0 mm | - | 74 W/m² | - |
| 1777636272 | 7.22° C | 77% | 1016.1 hPa | 0 mm | - | 34 W/m² | - |
| 1777635972 | 6.67° C | 78% | 1016.1 hPa | 0 mm | - | 35 W/m² | - |
| 1777635668 | 6.67° C | 79% | 1016.2 hPa | 0 mm | - | 31 W/m² | - |
| 1777635365 | 6.67° C | 80% | 1016.1 hPa | 0 mm | - | 32 W/m² | - |
| 1777635062 | 6.67° C | 80% | 1016 hPa | 0 mm | - | 31 W/m² | - |
| 1777634757 | 6.67° C | 81% | 1016.2 hPa | 0 mm | - | 29 W/m² | - |
| 1777634455 | 6.11° C | 82% | 1016 hPa | 0 mm | - | 34 W/m² | - |
| 1777634152 | 6.11° C | 84% | 1015.9 hPa | 0 mm | - | 27 W/m² | - |
| 1777633849 | 5.56° C | 86% | 1016.1 hPa | 0 mm | - | 26 W/m² | - |
| 1777633546 | 5° C | 89% | 1016 hPa | 0 mm | - | 25 W/m² | - |
| 1777633244 | 5° C | 90% | 1016.1 hPa | 0 mm | - | 24 W/m² | - |
| 1777632941 | 4.44° C | 92% | 1016 hPa | 0 mm | - | 22 W/m² | - |
| 1777632637 | 4.44° C | 92% | 1016.1 hPa | 0 mm | - | 21 W/m² | - |
| 1777632334 | 4.44° C | 92% | 1016.1 hPa | 0 mm | - | 19 W/m² | - |
| 1777632031 | 4.44° C | 92% | 1016 hPa | 0 mm | - | 19 W/m² | - |
| 1777631729 | 4.44° C | 92% | 1016.2 hPa | 0 mm | - | 16 W/m² | - |
| 1777631426 | 4.44° C | 92% | 1015.9 hPa | 0 mm | - | 17 W/m² | - |
| 1777631123 | 4.44° C | 92% | 1015.8 hPa | 0 mm | - | 16 W/m² | - |
| 1777630820 | 4.44° C | 92% | 1016 hPa | 0 mm | - | 14 W/m² | - |
| 1777630516 | 4.44° C | 92% | 1015.7 hPa | 0 mm | - | 11 W/m² | - |
| 1777630213 | 4.44° C | 92% | 1015.7 hPa | 0 mm | - | 8 W/m² | - |
| 1777629911 | 3.89° C | 92% | 1015.7 hPa | 0 mm | - | 6 W/m² | - |
* Rain latest hour (hover to see other rain measurements)
** Current wind speed in m/s (hover to see current wind gust speed)